Appleton, MN

9:14 AM CST on December 17, 2017 (GMT -0600)
Appleton Municipal

Weather History for KAQP - December, 2012

Change the Weather History Date:

Sunday, December 23, 2012

  Actual Average Record
Temperature  
Mean Temperature 10 °F -  
Max Temperature 15 °F 21 °F 39 °F (2006)
Min Temperature 5 °F 6 °F -20 °F (2013)
Degree Days  
Heating Degree Days 55    
Moisture  
Dew Point 6 °F    
Average Humidity 82    
Maximum Humidity 92    
Minimum Humidity 73    
Precipitation  
Precipitation 0.00 in - - ()
Sea Level Pressure  
Sea Level Pressure 30.10 in    
Wind  
Wind Speed 7 mph (North)    
Max Wind Speed 10 mph    
Max Gust Speed -    
Visibility 10 miles    
Events Snow    
Averages and records for this station are not official NWS values.
T = Trace of Precipitation, MM = Missing Value Source: NWS Daily Summary

Daily Weather History Graph

Daily Weather History Graph

Search for Another Location

Airport or City:

Trip Planner

Search our weather history database for the weather conditions in past years. The results will help you decide how hot, cold, wet, or windy it might be!

Date:

Astronomy

Dec. 23, 2012 Rise Set
Actual Time 8:01 AM CST 4:45 PM CST
Civil Twilight 7:27 AM CST 5:19 PM CST
Nautical Twilight 6:49 AM CST 5:57 PM CST
Astronomical Twilight 6:13 AM CST 6:33 PM CST
Moon 1:42 PM CST (12/23) 3:38 AM CST (12/23)
Length of Visible Light 9h 52m
Length of Day
8h 44m
Waxing Gibbous, 82% of the Moon is Illuminated
Dec 23
Waxing Gibbous
Dec 28
Full
Jan 4
Last Quarter
Jan 11
New
Jan 18
First Quarter

Hourly Weather History & Observations

Time (CST) Temp. Windchill Dew Point Humidity Pressure Visibility Wind Dir Wind Speed Gust Speed Precip Events Conditions
12:13 AM 8.6 °F -5.5 °F 3.2 °F 79% 30.11 in 10.0 mi NNW 10.4 mph - N/A   Scattered Clouds
12:34 AM 6.8 °F -7.8 °F 3.2 °F 85% 30.11 in 10.0 mi NNW 10.4 mph - N/A   Clear
12:53 AM 6.8 °F -5.9 °F 3.2 °F 85% 30.12 in 10.0 mi NNW 8.1 mph - N/A   Clear
1:14 AM 6.8 °F -4.8 °F 3.2 °F 85% 30.12 in 10.0 mi NNW 6.9 mph - N/A   Clear
1:33 AM 6.8 °F -6.9 °F 1.4 °F 79% 30.12 in 10.0 mi North 9.2 mph - N/A   Clear
1:53 AM 6.8 °F -6.9 °F 3.2 °F 85% 30.13 in 10.0 mi North 9.2 mph - N/A   Clear
2:13 AM 6.8 °F -6.9 °F 3.2 °F 85% 30.14 in 10.0 mi North 9.2 mph - N/A   Mostly Cloudy
2:33 AM 6.8 °F -6.9 °F 3.2 °F 85% 30.13 in 10.0 mi North 9.2 mph - N/A   Scattered Clouds
2:53 AM 8.6 °F -4.7 °F 3.2 °F 79% 30.13 in 10.0 mi North 9.2 mph - N/A   Scattered Clouds
3:13 AM 8.6 °F -2.6 °F 5.0 °F 85% 30.13 in 10.0 mi North 6.9 mph - N/A   Scattered Clouds
3:54 AM 6.8 °F -3.5 °F 3.2 °F 85% 30.12 in 10.0 mi North 5.8 mph - N/A   Scattered Clouds
4:14 AM 8.6 °F 0.1 °F 5.0 °F 85% 30.13 in 10.0 mi NW 4.6 mph - N/A   Clear
4:34 AM 8.6 °F 0.1 °F 5.0 °F 85% 30.13 in 10.0 mi NNW 4.6 mph - N/A   Scattered Clouds
4:53 AM 8.6 °F -1.3 °F 5.0 °F 85% 30.12 in 10.0 mi NNW 5.8 mph - N/A   Scattered Clouds
5:13 AM 8.6 °F -1.3 °F 5.0 °F 85% 30.13 in 10.0 mi NW 5.8 mph - N/A   Clear
5:33 AM 8.6 °F 0.1 °F 5.0 °F 85% 30.13 in 10.0 mi NW 4.6 mph - N/A   Clear
5:53 AM 6.8 °F -3.5 °F 3.2 °F 85% 30.13 in 10.0 mi NNW 5.8 mph - N/A   Clear
6:13 AM 6.8 °F -3.5 °F 3.2 °F 85% 30.13 in 10.0 mi NNW 5.8 mph - N/A   Clear
6:33 AM 6.8 °F -4.8 °F 3.2 °F 85% 30.14 in 10.0 mi NW 6.9 mph - N/A   Clear
6:54 AM 6.8 °F -3.5 °F 1.4 °F 79% 30.14 in 10.0 mi North 5.8 mph - N/A   Clear
7:13 AM 5.0 °F -6.9 °F 1.4 °F 85% 30.13 in 10.0 mi North 6.9 mph - N/A   Clear
7:53 AM 6.8 °F -3.5 °F 3.2 °F 85% 30.14 in 10.0 mi NNW 5.8 mph - N/A   Clear
8:13 AM 6.8 °F -3.5 °F 3.2 °F 85% 30.14 in 10.0 mi North 5.8 mph - N/A   Clear
8:33 AM 6.8 °F -3.5 °F 3.2 °F 85% 30.14 in 10.0 mi North 5.8 mph - N/A   Clear
8:53 AM 6.8 °F -0.1 °F 3.2 °F 85% 30.13 in 10.0 mi NNE 3.5 mph - N/A   Clear
9:13 AM 6.8 °F -0.1 °F 3.2 °F 85% 30.13 in 10.0 mi NNE 3.5 mph - N/A   Clear
9:33 AM 6.8 °F -2.0 °F 3.2 °F 85% 30.12 in 10.0 mi NE 4.6 mph - N/A   Clear
9:54 AM 8.6 °F 2.0 °F 5.0 °F 85% 30.13 in 10.0 mi NE 3.5 mph - N/A   Clear
10:13 AM 8.6 °F -2.6 °F 5.0 °F 85% 30.12 in 10.0 mi NE 6.9 mph - N/A   Clear
10:53 AM 12.2 °F - 6.8 °F 79% 30.13 in 10.0 mi Calm Calm - N/A   Clear
11:13 AM 12.2 °F 1.7 °F 6.8 °F 79% 30.12 in 10.0 mi East 6.9 mph - N/A Snow Light Snow
11:33 AM 12.2 °F 1.7 °F 6.8 °F 79% 30.12 in 7.0 mi ESE 6.9 mph - N/A Snow Light Snow
11:53 AM 12.2 °F 1.7 °F 6.8 °F 79% 30.11 in 7.0 mi East 6.9 mph - N/A Snow Light Snow
12:13 PM 14.0 °F 3.9 °F 6.8 °F 73% 30.10 in 5.0 mi East 6.9 mph - N/A Snow Light Snow
12:33 PM 12.2 °F 1.7 °F 8.6 °F 85% 30.09 in 10.0 mi East 6.9 mph - N/A Snow Light Snow
12:53 PM 14.0 °F 5.1 °F 8.6 °F 79% 30.09 in 7.0 mi East 5.8 mph - N/A Snow Light Snow
1:13 PM 15.8 °F 7.2 °F 8.6 °F 73% 30.07 in 7.0 mi East 5.8 mph - N/A Snow Light Snow
1:53 PM 14.0 °F 6.5 °F 8.6 °F 79% 30.08 in 10.0 mi East 4.6 mph - N/A   Scattered Clouds
2:13 PM 14.0 °F - 8.6 °F 79% 30.09 in 10.0 mi Calm Calm - N/A   Clear
2:33 PM 15.8 °F - 8.6 °F 73% 30.09 in 10.0 mi Calm Calm - N/A Snow Light Snow
2:53 PM 15.8 °F 6.1 °F 8.6 °F 73% 30.08 in 10.0 mi ENE 6.9 mph - N/A   Scattered Clouds
3:14 PM 15.8 °F - 8.6 °F 73% 30.10 in 10.0 mi Calm Calm - N/A   Clear
3:34 PM 15.8 °F 8.6 °F 8.6 °F 73% 30.10 in 10.0 mi North 4.6 mph - N/A   Scattered Clouds
3:53 PM 14.0 °F 6.5 °F 8.6 °F 79% 30.12 in 10.0 mi NNW 4.6 mph - N/A   Scattered Clouds
4:14 PM 12.2 °F 4.3 °F 8.6 °F 85% 30.11 in 10.0 mi North 4.6 mph - N/A   Scattered Clouds
4:33 PM 12.2 °F 4.3 °F 8.6 °F 85% 30.11 in 10.0 mi North 4.6 mph - N/A   Clear
4:53 PM 12.2 °F 6.1 °F 8.6 °F 85% 30.09 in 10.0 mi NE 3.5 mph - N/A   Scattered Clouds
5:13 PM 12.2 °F 6.1 °F 8.6 °F 85% 30.08 in 10.0 mi ENE 3.5 mph - N/A   Clear
5:33 PM 10.4 °F 4.0 °F 6.8 °F 85% 30.09 in 10.0 mi NNE 3.5 mph - N/A   Clear
5:54 PM 10.4 °F 2.2 °F 6.8 °F 85% 30.08 in 10.0 mi NNE 4.6 mph - N/A   Clear
6:14 PM 12.2 °F 6.1 °F 6.8 °F 79% 30.08 in 10.0 mi NNE 3.5 mph - N/A   Clear
6:33 PM 10.4 °F 2.2 °F 6.8 °F 85% 30.07 in 10.0 mi NE 4.6 mph - N/A   Scattered Clouds
6:53 PM 12.2 °F 4.3 °F 6.8 °F 79% 30.06 in 10.0 mi NE 4.6 mph - N/A   Scattered Clouds
7:13 PM 10.4 °F 2.2 °F 6.8 °F 85% 30.05 in 10.0 mi NE 4.6 mph - N/A   Scattered Clouds
7:33 PM 8.6 °F 0.1 °F 6.8 °F 92% 30.05 in 10.0 mi NNE 4.6 mph - N/A   Scattered Clouds
7:53 PM 10.4 °F 2.2 °F 6.8 °F 85% 30.06 in 10.0 mi NNW 4.6 mph - N/A   Mostly Cloudy
8:14 PM 12.2 °F 4.3 °F 8.6 °F 85% 30.04 in 10.0 mi NNE 4.6 mph - N/A   Overcast
8:33 PM 12.2 °F 4.3 °F 8.6 °F 85% 30.04 in 10.0 mi NNE 4.6 mph - N/A   Overcast
8:53 PM 14.0 °F 6.5 °F 8.6 °F 79% 30.04 in 10.0 mi North 4.6 mph - N/A   Overcast
9:14 PM 15.8 °F 10.2 °F 10.4 °F 79% 30.05 in 10.0 mi North 3.5 mph - N/A   Overcast
9:33 PM 15.8 °F 10.2 °F 10.4 °F 79% 30.06 in 10.0 mi NNW 3.5 mph - N/A   Overcast
9:53 PM 15.8 °F 10.2 °F 10.4 °F 79% 30.06 in 10.0 mi NW 3.5 mph - N/A   Overcast
10:13 PM 15.8 °F 8.6 °F 10.4 °F 79% 30.05 in 10.0 mi WNW 4.6 mph - N/A   Overcast
10:33 PM 15.8 °F 10.2 °F 10.4 °F 79% 30.05 in 10.0 mi WNW 3.5 mph - N/A   Overcast
10:53 PM 15.8 °F 8.6 °F 10.4 °F 79% 30.04 in 10.0 mi NNW 4.6 mph - N/A   Overcast
11:13 PM 15.8 °F 7.2 °F 10.4 °F 79% 30.04 in 10.0 mi NNW 5.8 mph - N/A   Overcast
11:33 PM 15.8 °F 7.2 °F 10.4 °F 79% 30.05 in 10.0 mi NNW 5.8 mph - N/A   Overcast
11:53 PM 15.8 °F 6.1 °F 10.4 °F 79% 30.05 in 10.0 mi NNW 6.9 mph - N/A   Overcast